Location: Errabaliem
(16.8108°N, 80.4255°E)
Time: 07:11:25
(UTC+00:00)

GPS 2-17 Rocket1 - Pass Details

Date: 05 August 2024
Orbit: 557 x 634 km, 20.3° (Epoch: 10 September)

Event Time Altitude Azimuth Distance (km) Brightness Sun altitude
Exits shadow 23:25:03 16° 278° (W) 1,516 4.5 -13.2°
Maximum altitude 23:28:22 58° 354° (N) 667 3.3 -12.4°
Drops below altitude 10° 23:32:37 10° 74° (ENE) 1,846 7.0 -11.5°
Sets 23:34:55 0° 78° (ENE) 2,733 8.4 -11.0°
